User: anonymous   Login
Location: Grossmotten
(48.5500°N, 15.3833°E)
Time: 17:30:59
(UTC+00:00)
Language:

Cosmos 1892 - Orbit

View from above orbital plane
View from above orbital plane
View from above satellite
View from above satellite

Ground track
Ground track

The orbit data is extracted from the following two-line orbital elements,

1 18421U 87088A   20024.82553844  .00000607  00000-0  29002-4 0  9994
2 18421  82.4986  56.6745 0014435 202.5977 157.4623 15.17020738762846
Epoch (UTC): 24 January 2020 19:48:46
Eccentricity: 0.0014435
inclination: 82.4986°
perigee height: 505 km
apogee height: 525 km
right ascension of ascending node: 56.6745°
argument of perigee: 202.5977°
revolutions per day: 15.17020738
mean anomaly at epoch: 157.4623°
orbit number at epoch: 76284

The dashed part of the orbit path shows where the satellite is in the earth's shadow,  

DLR